Location: ?????????
(38.5999°N, 22.7695°E)
Time: 05:12:52
(UTC+00:00)

Cosmos 2327 Rocket - Pass Details

Date: 23 May 2024
Orbit: 943 x 1007 km, 83.0° (Epoch: 20 May)

Event Time Altitude Azimuth Distance (km) Brightness Sun altitude
Exits shadow 02:20:53 - 196° (SSW) 3,364 6.8 -9.1°
Reaches altitude 10° 02:22:40 10° 199° (SSW) 2,704 6.3 -8.9°
Maximum altitude 02:28:46 61° 279° (W) 1,080 4.6 -7.9°
Drops below altitude 10° 02:34:49 10° 360° (N) 2,681 7.3 -6.9°
Sets 02:37:21 0° 4° (N) 3,625 8.1 -6.5°
